Time,TemperatureF,DewpointF,PressureIn,WindDirection,WindDirectionDegrees,WindSpeedMPH,WindSpeedGustMPH,Humidity,HourlyPrecipIn,Conditions,Clouds,dailyrainin,SoftwareType,DateUTC
2013-06-11 00:00:00,64.3,62.2,29.83,NW,319,0.0,2.4,93,0.00,,,0.00,VWS V14.01,2013-06-11 04:00:00,
2013-06-11 00:01:00,64.3,62.2,29.83,NW,319,3.5,3.5,93,0.00,,,0.00,VWS V14.01,2013-06-11 04:01:00,
2013-06-11 00:07:00,64.2,62.1,29.83,NW,312,0.0,1.2,93,0.00,,,0.00,VWS V14.01,2013-06-11 04:07:00,
2013-06-11 00:12:00,64.0,61.9,29.83,NW,312,0.0,1.2,93,0.00,,,0.00,VWS V14.01,2013-06-11 04:12:00,
2013-06-11 00:17:00,64.0,61.9,29.83,NW,312,0.0,0.0,93,0.00,,,0.00,VWS V14.01,2013-06-11 04:17:00,
2013-06-11 00:22:00,64.0,61.9,29.83,NW,312,0.0,1.2,93,0.00,,,0.00,VWS V14.01,2013-06-11 04:22:00,
2013-06-11 00:27:00,64.0,61.9,29.83,NW,312,0.0,0.0,93,0.00,,,0.00,VWS V14.01,2013-06-11 04:27:00,
2013-06-11 00:32:00,63.9,61.8,29.83,NW,312,0.0,0.0,93,0.00,,,0.00,VWS V14.01,2013-06-11 04:32:00,
2013-06-11 00:37:00,63.9,61.8,29.83,NW,312,0.0,1.2,93,0.00,,,0.00,VWS V14.01,2013-06-11 04:37:00,
2013-06-11 00:42:00,63.9,61.8,29.83,NW,312,0.0,0.0,93,0.00,,,0.00,VWS V14.01,2013-06-11 04:42:00,
2013-06-11 00:47:00,63.9,61.8,29.83,NW,312,0.0,0.0,93,0.00,,,0.00,VWS V14.01,2013-06-11 04:47:00,
2013-06-11 00:52:00,63.7,61.6,29.84,NW,312,0.0,0.0,93,0.00,,,0.00,VWS V14.01,2013-06-11 04:52:00,
2013-06-11 00:57:00,63.5,61.4,29.84,WSW,258,0.0,1.2,93,0.00,,,0.00,VWS V14.01,2013-06-11 04:57:00,
2013-06-11 01:02:00,63.4,61.3,29.84,WSW,240,0.0,1.2,93,0.00,,,0.00,VWS V14.01,2013-06-11 05:02:00,
2013-06-11 01:07:00,63.2,61.1,29.84,WSW,241,0.0,0.0,93,0.00,,,0.00,VWS V14.01,2013-06-11 05:07:00,
2013-06-11 01:12:00,63.1,61.0,29.84,WSW,241,0.0,0.0,93,0.00,,,0.00,VWS V14.01,2013-06-11 05:12:00,
2013-06-11 01:17:00,63.1,61.0,29.84,WSW,241,0.0,0.0,93,0.00,,,0.00,VWS V14.01,2013-06-11 05:17:00,
2013-06-11 01:22:00,62.9,60.8,29.84,WSW,241,0.0,0.0,93,0.00,,,0.00,VWS V14.01,2013-06-11 05:22:00,
2013-06-11 01:27:00,62.7,60.6,29.84,WNW,292,0.0,0.0,93,0.00,,,0.00,VWS V14.01,2013-06-11 05:27:00,
2013-06-11 01:32:00,62.6,60.5,29.84,WNW,292,0.0,0.0,93,0.00,,,0.00,VWS V14.01,2013-06-11 05:32:00,
2013-06-11 01:37:00,62.4,60.3,29.83,WNW,292,0.0,0.0,93,0.00,,,0.00,VWS V14.01,2013-06-11 05:37:00,
2013-06-11 01:42:00,62.3,60.2,29.84,WNW,292,0.0,0.0,93,0.00,,,0.00,VWS V14.01,2013-06-11 05:42:00,
2013-06-11 01:47:00,62.1,60.0,29.84,WNW,292,0.0,0.0,93,0.00,,,0.00,VWS V14.01,2013-06-11 05:47:00,
2013-06-11 01:52:00,62.0,59.9,29.84,WNW,292,0.0,0.0,93,0.00,,,0.00,VWS V14.01,2013-06-11 05:52:00,
2013-06-11 01:57:00,61.8,59.7,29.84,SW,227,4.7,4.7,93,0.00,,,0.00,VWS V14.01,2013-06-11 05:57:00,
2013-06-11 02:02:00,61.8,59.7,29.84,SW,227,1.2,1.2,93,0.00,,,0.00,VWS V14.01,2013-06-11 06:02:00,
2013-06-11 02:07:00,61.6,59.8,29.84,West,260,0.0,1.2,94,0.00,,,0.00,VWS V14.01,2013-06-11 06:07:00,
2013-06-11 02:12:00,61.6,59.8,29.84,West,275,0.0,1.2,94,0.00,,,0.00,VWS V14.01,2013-06-11 06:12:00,
2013-06-11 02:17:00,61.5,59.7,29.85,West,276,1.2,2.4,94,0.00,,,0.00,VWS V14.01,2013-06-11 06:17:00,
2013-06-11 02:22:00,61.5,59.7,29.85,West,277,0.0,0.0,94,0.00,,,0.00,VWS V14.01,2013-06-11 06:22:00,
2013-06-11 02:27:00,61.5,59.7,29.85,West,277,0.0,0.0,94,0.00,,,0.00,VWS V14.01,2013-06-11 06:27:00,
2013-06-11 02:32:00,61.5,59.7,29.85,West,277,0.0,1.2,94,0.00,,,0.00,VWS V14.01,2013-06-11 06:32:00,
2013-06-11 02:37:00,61.6,59.8,29.85,NW,307,1.2,2.4,94,0.00,,,0.00,VWS V14.01,2013-06-11 06:37:00,
2013-06-11 02:42:00,61.6,60.1,29.85,NW,307,2.4,2.4,95,0.00,,,0.00,VWS V14.01,2013-06-11 06:42:00,
2013-06-11 02:47:00,61.8,60.3,29.85,NW,308,1.2,4.7,95,0.00,,,0.00,VWS V14.01,2013-06-11 06:47:00,
2013-06-11 02:52:00,61.8,60.3,29.85,NW,308,2.4,2.4,95,0.00,,,0.00,VWS V14.01,2013-06-11 06:52:00,
2013-06-11 02:57:00,61.8,60.3,29.85,NW,307,1.2,2.4,95,0.00,,,0.00,VWS V14.01,2013-06-11 06:57:00,
2013-06-11 03:02:00,61.8,60.6,29.86,NW,308,0.0,2.4,96,0.00,,,0.00,VWS V14.01,2013-06-11 07:02:00,
2013-06-11 03:07:00,61.8,60.6,29.85,NW,308,0.0,0.0,96,0.00,,,0.00,VWS V14.01,2013-06-11 07:07:00,
2013-06-11 03:12:00,61.8,60.6,29.86,NW,304,0.0,2.4,96,0.00,,,0.00,VWS V14.01,2013-06-11 07:12:00,
2013-06-11 03:17:00,61.8,60.6,29.86,WNW,299,0.0,4.7,96,0.00,,,0.00,VWS V14.01,2013-06-11 07:17:00,
2013-06-11 03:22:00,62.0,60.8,29.86,WNW,292,0.0,1.2,96,0.00,,,0.00,VWS V14.01,2013-06-11 07:22:00,
2013-06-11 03:27:00,62.0,60.8,29.86,WNW,292,0.0,1.2,96,0.00,,,0.00,VWS V14.01,2013-06-11 07:27:00,
2013-06-11 03:32:00,62.0,61.1,29.86,NW,311,2.4,4.7,97,0.00,,,0.00,VWS V14.01,2013-06-11 07:32:00,
2013-06-11 03:37:00,62.0,61.1,29.86,NW,311,0.0,0.0,97,0.00,,,0.00,VWS V14.01,2013-06-11 07:37:00,
2013-06-11 03:42:00,62.0,61.1,29.86,West,279,2.4,3.5,97,0.00,,,0.00,VWS V14.01,2013-06-11 07:42:00,
2013-06-11 03:47:00,61.8,61.2,29.86,West,278,0.0,1.2,98,0.00,,,0.00,VWS V14.01,2013-06-11 07:47:00,
2013-06-11 03:52:00,61.8,61.2,29.86,SW,228,0.0,0.0,98,0.00,,,0.00,VWS V14.01,2013-06-11 07:52:00,
2013-06-11 03:57:00,61.8,61.5,29.86,WSW,255,2.4,2.4,99,0.00,,,0.00,VWS V14.01,2013-06-11 07:57:00,
2013-06-11 04:02:00,61.8,61.5,29.86,WSW,255,0.0,2.4,99,0.00,,,0.00,VWS V14.01,2013-06-11 08:02:00,
2013-06-11 04:07:00,61.8,61.5,29.86,West,273,2.4,2.4,99,0.00,,,0.00,VWS V14.01,2013-06-11 08:07:00,
2013-06-11 04:12:00,61.8,61.8,29.86,WNW,289,3.5,4.7,100,0.00,,,0.00,VWS V14.01,2013-06-11 08:12:00,
2013-06-11 04:17:00,61.6,61.6,29.86,WNW,289,0.0,2.4,100,0.00,,,0.00,VWS V14.01,2013-06-11 08:17:00,
2013-06-11 04:22:00,61.6,61.6,29.86,WNW,289,0.0,1.2,100,0.00,,,0.00,VWS V14.01,2013-06-11 08:22:00,
2013-06-11 04:27:00,61.6,61.6,29.86,WNW,289,0.0,1.2,100,0.00,,,0.00,VWS V14.01,2013-06-11 08:27:00,
2013-06-11 04:32:00,61.6,61.6,29.86,WNW,289,1.2,2.4,100,0.00,,,0.00,VWS V14.01,2013-06-11 08:32:00,
2013-06-11 04:37:00,61.5,61.5,29.86,WNW,290,0.0,1.2,100,0.00,,,0.00,VWS V14.01,2013-06-11 08:37:00,
2013-06-11 04:42:00,61.5,61.5,29.87,WNW,289,0.0,0.0,100,0.00,,,0.00,VWS V14.01,2013-06-11 08:42:00,
2013-06-11 04:47:00,61.5,61.5,29.87,WNW,286,2.4,2.4,100,0.00,,,0.00,VWS V14.01,2013-06-11 08:47:00,
2013-06-11 04:52:00,61.5,61.5,29.87,WNW,285,0.0,1.2,100,0.00,,,0.00,VWS V14.01,2013-06-11 08:52:00,
2013-06-11 04:57:00,61.5,61.5,29.87,WNW,286,1.2,3.5,100,0.00,,,0.00,VWS V14.01,2013-06-11 08:57:00,
2013-06-11 05:02:00,61.5,61.5,29.87,WNW,286,0.0,0.0,100,0.00,,,0.00,VWS V14.01,2013-06-11 09:02:00,
2013-06-11 05:07:00,61.5,61.5,29.87,WNW,286,0.0,1.2,100,0.00,,,0.00,VWS V14.01,2013-06-11 09:07:00,
2013-06-11 05:12:00,61.3,61.3,29.86,WNW,286,0.0,0.0,100,0.00,,,0.00,VWS V14.01,2013-06-11 09:12:00,
2013-06-11 05:17:00,61.3,61.3,29.87,WNW,286,0.0,0.0,100,0.00,,,0.00,VWS V14.01,2013-06-11 09:17:00,
2013-06-11 05:22:00,61.3,61.3,29.87,WNW,286,0.0,0.0,100,0.00,,,0.00,VWS V14.01,2013-06-11 09:22:00,
2013-06-11 05:27:00,61.3,61.3,29.87,WNW,286,0.0,0.0,100,0.00,,,0.00,VWS V14.01,2013-06-11 09:27:00,
2013-06-11 05:32:00,61.2,61.2,29.88,West,263,0.0,1.2,100,0.00,,,0.00,VWS V14.01,2013-06-11 09:32:00,
2013-06-11 05:37:00,61.2,61.2,29.88,NNW,332,3.5,3.5,100,0.00,,,0.00,VWS V14.01,2013-06-11 09:37:00,
2013-06-11 05:42:00,61.2,61.2,29.88,WSW,248,2.4,4.7,100,0.00,,,0.00,VWS V14.01,2013-06-11 09:42:00,
2013-06-11 05:47:00,61.2,61.2,29.88,WNW,283,0.0,0.0,100,0.00,,,0.00,VWS V14.01,2013-06-11 09:47:00,
2013-06-11 05:52:00,61.2,61.2,29.88,WNW,284,1.2,1.2,100,0.00,,,0.00,VWS V14.01,2013-06-11 09:52:00,
2013-06-11 05:57:00,61.2,61.2,29.88,WNW,282,0.0,0.0,100,0.00,,,0.00,VWS V14.01,2013-06-11 09:57:00,
2013-06-11 06:02:00,61.2,61.2,29.89,West,261,2.4,3.5,100,0.00,,,0.00,VWS V14.01,2013-06-11 10:02:00,
2013-06-11 06:07:00,61.2,61.2,29.89,WNW,294,1.2,3.5,100,0.00,,,0.00,VWS V14.01,2013-06-11 10:07:00,
2013-06-11 06:12:00,61.2,61.2,29.89,SW,217,0.0,1.2,100,0.00,,,0.00,VWS V14.01,2013-06-11 10:12:00,
2013-06-11 06:17:00,61.2,61.2,29.89,SW,217,0.0,1.2,100,0.00,,,0.00,VWS V14.01,2013-06-11 10:17:00,
2013-06-11 06:22:00,61.2,61.2,29.89,SW,217,1.2,1.2,100,0.00,,,0.00,VWS V14.01,2013-06-11 10:22:00,
2013-06-11 06:27:00,61.2,61.2,29.89,West,281,2.4,5.9,100,0.00,,,0.00,VWS V14.01,2013-06-11 10:27:00,
2013-06-11 06:32:00,61.2,61.2,29.90,WNW,303,3.5,3.5,100,0.00,,,0.00,VWS V14.01,2013-06-11 10:32:00,
2013-06-11 06:37:00,61.2,61.2,29.90,WSW,240,0.0,4.7,100,0.00,,,0.00,VWS V14.01,2013-06-11 10:37:00,
2013-06-11 06:42:00,61.2,61.2,29.89,WSW,240,0.0,0.0,100,0.00,,,0.00,VWS V14.01,2013-06-11 10:42:00,
2013-06-11 06:47:00,61.2,61.2,29.90,WSW,240,0.0,0.0,100,0.00,,,0.00,VWS V14.01,2013-06-11 10:47:00,
2013-06-11 06:52:00,61.2,61.2,29.90,WSW,244,0.0,1.2,100,0.00,,,0.00,VWS V14.01,2013-06-11 10:52:00,
2013-06-11 06:57:00,61.2,61.2,29.90,WNW,294,0.0,4.7,100,0.00,,,0.00,VWS V14.01,2013-06-11 10:57:00,
2013-06-11 07:02:00,61.3,61.3,29.90,West,263,0.0,0.0,100,0.00,,,0.00,VWS V14.01,2013-06-11 11:02:00,
2013-06-11 07:07:00,61.3,61.3,29.90,SW,221,0.0,0.0,100,0.00,,,0.00,VWS V14.01,2013-06-11 11:07:00,
2013-06-11 07:12:00,61.3,61.3,29.90,SW,221,0.0,0.0,100,0.00,,,0.00,VWS V14.01,2013-06-11 11:12:00,
2013-06-11 07:17:00,61.3,61.3,29.90,SW,221,0.0,0.0,100,0.00,,,0.00,VWS V14.01,2013-06-11 11:17:00,
2013-06-11 07:22:00,61.5,61.5,29.90,SW,221,0.0,0.0,100,0.00,,,0.00,VWS V14.01,2013-06-11 11:22:00,
2013-06-11 07:27:00,61.6,61.6,29.90,SW,221,3.5,3.5,100,0.00,,,0.00,VWS V14.01,2013-06-11 11:27:00,
2013-06-11 07:32:00,61.6,61.6,29.90,WSW,242,0.0,1.2,100,0.00,,,0.00,VWS V14.01,2013-06-11 11:32:00,
2013-06-11 07:37:00,61.6,61.6,29.90,WSW,252,0.0,1.2,100,0.00,,,0.00,VWS V14.01,2013-06-11 11:37:00,
2013-06-11 07:42:00,61.8,61.8,29.90,WSW,252,0.0,0.0,100,0.00,,,0.00,VWS V14.01,2013-06-11 11:42:00,
2013-06-11 07:47:00,61.8,61.8,29.90,WSW,252,0.0,0.0,100,0.00,,,0.00,VWS V14.01,2013-06-11 11:47:00,
2013-06-11 07:52:00,61.8,61.8,29.90,WSW,252,1.2,2.4,100,0.00,,,0.00,VWS V14.01,2013-06-11 11:52:00,
2013-06-11 07:57:00,62.0,62.0,29.90,WSW,249,0.0,0.0,100,0.00,,,0.00,VWS V14.01,2013-06-11 11:57:00,
2013-06-11 08:02:00,62.0,62.0,29.90,WSW,249,0.0,1.2,100,0.00,,,0.00,VWS V14.01,2013-06-11 12:02:00,
2013-06-11 08:07:00,62.0,62.0,29.90,WSW,249,0.0,1.2,100,0.00,,,0.00,VWS V14.01,2013-06-11 12:07:00,
2013-06-11 08:12:00,62.0,62.0,29.90,SW,215,0.0,0.0,100,0.00,,,0.00,VWS V14.01,2013-06-11 12:12:00,
2013-06-11 08:17:00,62.0,62.0,29.91,SW,231,0.0,0.0,100,0.00,,,0.00,VWS V14.01,2013-06-11 12:17:00,
2013-06-11 08:22:00,62.1,62.1,29.91,SW,231,0.0,1.2,100,0.00,,,0.00,VWS V14.01,2013-06-11 12:22:00,
2013-06-11 08:27:00,62.3,62.3,29.91,SW,230,0.0,1.2,100,0.00,,,0.00,VWS V14.01,2013-06-11 12:27:00,
2013-06-11 08:32:00,62.4,62.4,29.91,SW,230,0.0,2.4,100,0.00,,,0.00,VWS V14.01,2013-06-11 12:32:00,
2013-06-11 08:37:00,62.6,62.6,29.91,SW,230,0.0,0.0,100,0.00,,,0.00,VWS V14.01,2013-06-11 12:37:00,
2013-06-11 08:42:00,62.7,62.7,29.90,SW,230,0.0,0.0,100,0.00,,,0.00,VWS V14.01,2013-06-11 12:42:00,
2013-06-11 08:47:00,63.1,63.1,29.91,SW,216,0.0,1.2,100,0.00,,,0.00,VWS V14.01,2013-06-11 12:47:00,
2013-06-11 08:52:00,63.2,63.2,29.91,WSW,240,0.0,0.0,100,0.00,,,0.00,VWS V14.01,2013-06-11 12:52:00,
2013-06-11 08:57:00,63.7,63.7,29.91,WSW,240,0.0,1.2,100,0.00,,,0.00,VWS V14.01,2013-06-11 12:57:00,
2013-06-11 09:02:00,64.2,64.2,29.91,WSW,250,1.2,1.2,100,0.00,,,0.00,VWS V14.01,2013-06-11 13:02:00,
2013-06-11 09:07:00,64.7,64.7,29.91,WSW,250,0.0,0.0,100,0.00,,,0.00,VWS V14.01,2013-06-11 13:07:00,
2013-06-11 09:12:00,65.2,65.2,29.92,WSW,239,0.0,0.0,100,0.00,,,0.00,VWS V14.01,2013-06-11 13:12:00,
2013-06-11 09:17:00,65.8,65.8,29.92,South,169,0.0,2.4,100,0.00,,,0.00,VWS V14.01,2013-06-11 13:17:00,
2013-06-11 09:22:00,66.3,66.3,29.92,SSW,198,0.0,0.0,100,0.00,,,0.00,VWS V14.01,2013-06-11 13:22:00,
2013-06-11 09:27:00,66.6,66.6,29.92,West,273,1.2,3.5,100,0.00,,,0.00,VWS V14.01,2013-06-11 13:27:00,
2013-06-11 09:32:00,66.8,66.8,29.92,West,273,0.0,1.2,100,0.00,,,0.00,VWS V14.01,2013-06-11 13:32:00,
2013-06-11 09:37:00,67.3,67.3,29.92,West,273,1.2,2.4,100,0.00,,,0.00,VWS V14.01,2013-06-11 13:37:00,
2013-06-11 09:42:00,67.8,67.8,29.92,West,273,0.0,1.2,100,0.00,,,0.00,VWS V14.01,2013-06-11 13:42:00,
2013-06-11 09:47:00,68.3,68.3,29.92,West,273,0.0,1.2,100,0.00,,,0.00,VWS V14.01,2013-06-11 13:47:00,
2013-06-11 09:52:00,68.9,68.9,29.92,West,273,0.0,0.0,100,0.00,,,0.00,VWS V14.01,2013-06-11 13:52:00,
2013-06-11 09:57:00,69.3,69.3,29.92,WSW,240,0.0,2.4,100,0.00,,,0.00,VWS V14.01,2013-06-11 13:57:00,
2013-06-11 10:02:00,69.8,69.5,29.92,SSW,209,2.4,4.7,99,0.00,,,0.00,VWS V14.01,2013-06-11 14:02:00,
2013-06-11 10:07:00,70.3,68.5,29.92,West,275,1.2,1.2,94,0.00,,,0.00,VWS V14.01,2013-06-11 14:07:00,
2013-06-11 10:12:00,70.6,68.1,29.92,West,275,3.5,5.9,92,0.00,,,0.00,VWS V14.01,2013-06-11 14:12:00,
2013-06-11 10:17:00,70.9,67.8,29.92,WSW,252,0.0,0.0,90,0.00,,,0.00,VWS V14.01,2013-06-11 14:17:00,
2013-06-11 10:22:00,71.5,67.7,29.92,WSW,252,0.0,0.0,88,0.00,,,0.00,VWS V14.01,2013-06-11 14:22:00,
2013-06-11 10:27:00,72.1,68.0,29.92,WSW,256,2.4,3.5,87,0.00,,,0.00,VWS V14.01,2013-06-11 14:27:00,
2013-06-11 10:32:00,72.7,67.2,29.92,SW,234,0.0,2.4,83,0.00,,,0.00,VWS V14.01,2013-06-11 14:32:00,
2013-06-11 10:37:00,73.2,66.6,29.92,WSW,252,2.4,3.5,80,0.00,,,0.00,VWS V14.01,2013-06-11 14:37:00,
2013-06-11 10:42:00,73.7,66.3,29.92,SW,214,3.5,4.7,78,0.00,,,0.00,VWS V14.01,2013-06-11 14:42:00,
2013-06-11 10:47:00,74.4,66.2,29.92,SW,220,0.0,1.2,76,0.00,,,0.00,VWS V14.01,2013-06-11 14:47:00,
2013-06-11 10:52:00,74.9,66.3,29.92,SW,228,0.0,1.2,75,0.00,,CLR,0.00,VWS V14.01,2013-06-11 14:52:00,
2013-06-11 10:57:00,75.3,65.9,29.92,West,261,2.4,4.7,73,0.00,,CLR,0.00,VWS V14.01,2013-06-11 14:57:00,
2013-06-11 11:02:00,75.8,65.6,29.92,SSW,212,0.0,1.2,71,0.00,,CLR,0.00,VWS V14.01,2013-06-11 15:02:00,
2013-06-11 11:07:00,76.1,65.9,29.92,WSW,250,1.2,2.4,71,0.00,,CLR,0.00,VWS V14.01,2013-06-11 15:07:00,
2013-06-11 11:12:00,76.5,66.3,29.92,NW,317,1.2,5.9,71,0.00,,CLR,0.00,VWS V14.01,2013-06-11 15:12:00,
2013-06-11 11:17:00,77.0,66.3,29.92,SSW,207,4.7,5.9,70,0.00,,CLR,0.00,VWS V14.01,2013-06-11 15:17:00,
2013-06-11 11:22:00,77.2,66.1,29.92,WSW,244,2.4,4.7,69,0.00,,CLR,0.00,VWS V14.01,2013-06-11 15:22:00,
2013-06-11 11:27:00,77.6,66.5,29.92,SW,223,3.5,4.7,69,0.00,,CLR,0.00,VWS V14.01,2013-06-11 15:27:00,
2013-06-11 11:32:00,77.7,66.2,29.92,WNW,287,1.2,1.2,68,0.00,,CLR,0.00,VWS V14.01,2013-06-11 15:32:00,
2013-06-11 11:37:00,78.1,66.1,29.91,WSW,246,0.0,0.0,67,0.00,,CLR,0.00,VWS V14.01,2013-06-11 15:37:00,
2013-06-11 11:42:00,78.5,66.1,29.91,SSW,208,2.4,8.3,66,0.00,,CLR,0.00,VWS V14.01,2013-06-11 15:42:00,
2013-06-11 11:47:00,78.8,66.3,29.91,SW,227,0.0,4.7,66,0.00,,CLR,0.00,VWS V14.01,2013-06-11 15:47:00,
2013-06-11 11:52:00,79.2,66.3,29.91,SW,223,2.4,4.7,65,0.00,,CLR,0.00,VWS V14.01,2013-06-11 15:52:00,
2013-06-11 11:57:00,79.6,67.5,29.91,West,260,3.5,5.9,67,0.00,,CLR,0.00,VWS V14.01,2013-06-11 15:57:00,
2013-06-11 12:02:00,79.9,67.4,29.91,SSW,208,1.2,1.2,66,0.00,,CLR,0.00,VWS V14.01,2013-06-11 16:02:00,
2013-06-11 12:07:00,80.3,67.3,29.91,SSW,196,0.0,1.2,65,0.00,,CLR,0.00,VWS V14.01,2013-06-11 16:07:00,
2013-06-11 12:12:00,80.7,66.8,29.91,WNW,293,3.5,5.9,63,0.00,,CLR,0.00,VWS V14.01,2013-06-11 16:12:00,
2013-06-11 12:17:00,81.1,66.7,29.91,North,9,0.0,4.7,62,0.00,,CLR,0.00,VWS V14.01,2013-06-11 16:17:00,
2013-06-11 12:22:00,81.2,67.2,29.91,WSW,257,2.4,4.7,63,0.00,,CLR,0.00,VWS V14.01,2013-06-11 16:22:00,
2013-06-11 12:27:00,81.4,67.0,29.91,NW,311,0.0,1.2,62,0.00,,CLR,0.00,VWS V14.01,2013-06-11 16:27:00,
2013-06-11 12:32:00,81.8,67.3,29.91,NNE,24,2.4,3.5,62,0.00,,CLR,0.00,VWS V14.01,2013-06-11 16:32:00,
2013-06-11 12:37:00,82.0,67.5,29.91,WNW,300,5.9,5.9,62,0.00,,CLR,0.00,VWS V14.01,2013-06-11 16:37:00,
2013-06-11 12:42:00,82.2,67.2,29.91,NW,304,3.5,3.5,61,0.00,,CLR,0.00,VWS V14.01,2013-06-11 16:42:00,
2013-06-11 12:47:00,82.4,66.9,29.91,NNW,347,1.2,1.2,60,0.00,,CLR,0.00,VWS V14.01,2013-06-11 16:47:00,
2013-06-11 12:52:00,82.4,66.4,29.90,North,355,2.4,3.5,59,0.00,,CLR,0.00,VWS V14.01,2013-06-11 16:52:00,
2013-06-11 12:57:00,82.6,67.1,29.90,South,184,2.4,2.4,60,0.00,,CLR,0.00,VWS V14.01,2013-06-11 16:57:00,
2013-06-11 13:02:00,82.8,67.3,29.90,WSW,251,2.4,2.4,60,0.00,,CLR,0.00,VWS V14.01,2013-06-11 17:02:00,
2013-06-11 13:07:00,83.0,66.5,29.90,WSW,257,3.5,3.5,58,0.00,,CLR,0.00,VWS V14.01,2013-06-11 17:07:00,
2013-06-11 13:12:00,83.0,66.5,29.90,WSW,248,0.0,1.2,58,0.00,,CLR,0.00,VWS V14.01,2013-06-11 17:12:00,
2013-06-11 13:17:00,83.2,67.2,29.90,NW,306,0.0,0.0,59,0.00,,CLR,0.00,VWS V14.01,2013-06-11 17:17:00,
2013-06-11 13:22:00,83.4,67.4,29.90,SSW,199,0.0,1.2,59,0.00,,CLR,0.00,VWS V14.01,2013-06-11 17:22:00,
2013-06-11 13:27:00,83.4,66.4,29.90,SW,226,0.0,3.5,57,0.00,,CLR,0.00,VWS V14.01,2013-06-11 17:27:00,
2013-06-11 13:32:00,83.2,65.7,29.90,WSW,256,0.0,0.0,56,0.00,,CLR,0.00,VWS V14.01,2013-06-11 17:32:00,
2013-06-11 13:37:00,83.0,66.0,29.89,SSW,211,1.2,1.2,57,0.00,,CLR,0.00,VWS V14.01,2013-06-11 17:37:00,
2013-06-11 13:42:00,82.8,66.3,29.89,SW,221,0.0,1.2,58,0.00,,CLR,0.00,VWS V14.01,2013-06-11 17:42:00,
2013-06-11 13:47:00,82.6,66.6,29.89,WSW,240,0.0,0.0,59,0.00,,CLR,0.00,VWS V14.01,2013-06-11 17:47:00,
2013-06-11 13:52:00,82.6,66.6,29.89,SSW,202,0.0,1.2,59,0.00,,CLR,0.00,VWS V14.01,2013-06-11 17:52:00,
2013-06-11 13:57:00,82.6,66.6,29.89,SSW,197,7.1,7.1,59,0.00,,CLR,0.00,VWS V14.01,2013-06-11 17:57:00,
2013-06-11 14:02:00,82.8,67.3,29.89,WSW,238,7.1,7.1,60,0.00,,CLR,0.00,VWS V14.01,2013-06-11 18:02:00,
2013-06-11 14:07:00,82.8,65.3,29.89,East,99,0.0,0.0,56,0.00,,CLR,0.00,VWS V14.01,2013-06-11 18:07:00,
2013-06-11 14:13:00,82.8,66.3,29.89,WNW,298,3.5,4.7,58,0.00,,CLR,0.00,VWS V14.01,2013-06-11 18:13:00,
2013-06-11 14:18:00,83.0,67.5,29.89,WSW,249,2.4,3.5,60,0.00,,CLR,0.00,VWS V14.01,2013-06-11 18:18:00,
2013-06-11 14:23:00,82.8,66.3,29.89,NW,308,2.4,3.5,58,0.00,,CLR,0.00,VWS V14.01,2013-06-11 18:23:00,
2013-06-11 14:28:00,83.0,66.5,29.88,ENE,59,0.0,2.4,58,0.00,,CLR,0.00,VWS V14.01,2013-06-11 18:28:00,
2013-06-11 14:33:00,83.2,66.7,29.88,South,178,4.7,5.9,58,0.00,,CLR,0.00,VWS V14.01,2013-06-11 18:33:00,
2013-06-11 14:38:00,83.6,66.0,29.88,SSW,212,1.2,2.4,56,0.00,,CLR,0.00,VWS V14.01,2013-06-11 18:38:00,
2013-06-11 14:43:00,83.8,65.7,29.87,SSE,155,4.7,11.8,55,0.00,,CLR,0.00,VWS V14.01,2013-06-11 18:43:00,
2013-06-11 14:48:00,83.8,65.2,29.87,WSW,242,3.5,4.7,54,0.00,,CLR,0.00,VWS V14.01,2013-06-11 18:48:00,
2013-06-11 14:53:00,83.6,65.5,29.87,SW,228,2.4,4.7,55,0.00,,SCT039,0.00,VWS V14.01,2013-06-11 18:53:00,
2013-06-11 14:58:00,83.6,66.0,29.88,WSW,242,3.5,8.3,56,0.00,,SCT039,0.00,VWS V14.01,2013-06-11 18:58:00,
2013-06-11 15:03:00,83.6,65.5,29.88,South,175,0.0,4.7,55,0.00,,SCT039,0.00,VWS V14.01,2013-06-11 19:03:00,
2013-06-11 15:08:00,83.6,66.0,29.88,SW,221,1.2,3.5,56,0.00,,SCT039,0.00,VWS V14.01,2013-06-11 19:08:00,
2013-06-11 15:13:00,83.4,64.8,29.87,West,261,1.2,10.6,54,0.00,,SCT039,0.00,VWS V14.01,2013-06-11 19:13:00,
2013-06-11 15:18:00,83.6,65.5,29.87,NW,308,3.5,8.3,55,0.00,,SCT039,0.00,VWS V14.01,2013-06-11 19:18:00,
2013-06-11 15:23:00,84.0,66.4,29.87,SSW,205,13.0,14.2,56,0.00,,SCT039,0.00,VWS V14.01,2013-06-11 19:23:00,
2013-06-11 15:28:00,84.1,64.9,29.87,SSW,200,13.0,13.0,53,0.00,,SCT039,0.00,VWS V14.01,2013-06-11 19:28:00,
2013-06-11 15:33:00,84.1,65.4,29.87,South,169,10.6,13.0,54,0.00,,SCT039,0.00,VWS V14.01,2013-06-11 19:33:00,
2013-06-11 15:38:00,84.1,64.9,29.87,West,263,1.2,3.5,53,0.00,,SCT039,0.00,VWS V14.01,2013-06-11 19:38:00,
2013-06-11 15:43:00,84.1,64.9,29.87,SSW,204,0.0,2.4,53,0.00,,SCT039,0.00,VWS V14.01,2013-06-11 19:43:00,
2013-06-11 15:48:00,84.0,64.8,29.87,SW,216,4.7,10.6,53,0.00,,SCT039,0.00,VWS V14.01,2013-06-11 19:48:00,
2013-06-11 15:53:00,84.0,65.3,29.87,SW,219,4.7,14.2,54,0.00,,BKN042,0.00,VWS V14.01,2013-06-11 19:53:00,
2013-06-11 15:58:00,83.8,64.6,29.86,SSW,202,0.0,7.1,53,0.00,,BKN042,0.00,VWS V14.01,2013-06-11 19:58:00,
2013-06-11 16:03:00,84.0,64.2,29.86,WSW,257,4.7,8.3,52,0.00,,BKN042,0.00,VWS V14.01,2013-06-11 20:03:00,
2013-06-11 16:08:00,84.0,64.8,29.86,WSW,244,0.0,5.9,53,0.00,,BKN042,0.00,VWS V14.01,2013-06-11 20:08:00,
2013-06-11 16:13:00,84.1,65.4,29.86,SW,235,5.9,5.9,54,0.00,,BKN042,0.00,VWS V14.01,2013-06-11 20:13:00,
2013-06-11 16:18:00,84.3,64.5,29.85,SE,140,0.0,5.9,52,0.00,,BKN042,0.00,VWS V14.01,2013-06-11 20:18:00,
2013-06-11 16:23:00,84.5,63.5,29.85,South,178,4.7,9.4,49,0.00,,BKN042,0.00,VWS V14.01,2013-06-11 20:23:00,
2013-06-11 16:28:00,84.5,64.1,29.84,SW,217,7.1,13.0,50,0.00,,BKN042,0.00,VWS V14.01,2013-06-11 20:28:00,
2013-06-11 16:33:00,84.3,64.5,29.84,South,173,4.7,20.1,52,0.00,,BKN042,0.00,VWS V14.01,2013-06-11 20:33:00,
2013-06-11 16:38:00,84.1,64.9,29.85,SW,223,7.1,11.8,53,0.00,,BKN042,0.00,VWS V14.01,2013-06-11 20:38:00,
2013-06-11 16:43:00,84.0,63.7,29.84,SSW,193,4.7,7.1,50,0.00,,BKN042,0.00,VWS V14.01,2013-06-11 20:43:00,
2013-06-11 16:48:00,84.1,63.8,29.84,West,261,0.0,3.5,50,0.00,,BKN042,0.00,VWS V14.01,2013-06-11 20:48:00,
2013-06-11 16:53:00,84.5,64.7,29.84,West,275,2.4,3.5,52,0.00,,CLR,0.00,VWS V14.01,2013-06-11 20:53:00,
2013-06-11 16:58:00,84.9,64.5,29.84,NNW,343,4.7,4.7,50,0.00,,CLR,0.00,VWS V14.01,2013-06-11 20:58:00,
2013-06-11 17:03:00,85.3,64.3,29.84,NNW,329,0.0,4.7,49,0.00,,CLR,0.00,VWS V14.01,2013-06-11 21:03:00,
2013-06-11 17:08:00,85.7,64.1,29.84,South,186,4.7,7.1,48,0.00,,CLR,0.00,VWS V14.01,2013-06-11 21:08:00,
2013-06-11 17:13:00,85.9,63.0,29.84,SW,227,0.0,2.4,46,0.00,,CLR,0.00,VWS V14.01,2013-06-11 21:13:00,
2013-06-11 17:18:00,86.1,63.8,29.84,South,190,5.9,10.6,47,0.00,,CLR,0.00,VWS V14.01,2013-06-11 21:18:00,
2013-06-11 17:23:00,86.1,63.8,29.83,SSW,196,1.2,5.9,47,0.00,,CLR,0.00,VWS V14.01,2013-06-11 21:23:00,
2013-06-11 17:28:00,86.1,64.4,29.83,SSW,211,8.3,11.8,48,0.00,,CLR,0.00,VWS V14.01,2013-06-11 21:28:00,
2013-06-11 17:33:00,85.9,63.6,29.83,SSW,212,7.1,14.2,47,0.00,,CLR,0.00,VWS V14.01,2013-06-11 21:33:00,
2013-06-11 17:38:00,85.7,64.1,29.83,WSW,251,8.3,8.3,48,0.00,,CLR,0.00,VWS V14.01,2013-06-11 21:38:00,
2013-06-11 17:43:00,85.5,63.3,29.83,SSE,167,5.9,7.1,47,0.00,,CLR,0.00,VWS V14.01,2013-06-11 21:43:00,
2013-06-11 17:48:00,85.5,63.9,29.83,SW,233,11.8,11.8,48,0.00,,CLR,0.00,VWS V14.01,2013-06-11 21:48:00,
2013-06-11 17:53:00,85.3,63.7,29.83,West,275,4.7,8.3,48,0.00,,CLR,0.00,VWS V14.01,2013-06-11 21:53:00,
2013-06-11 17:58:00,84.9,63.3,29.83,SW,215,2.4,4.7,48,0.00,,CLR,0.00,VWS V14.01,2013-06-11 21:58:00,
2013-06-11 18:03:00,84.7,63.1,29.84,SSW,202,9.4,9.4,48,0.00,,CLR,0.00,VWS V14.01,2013-06-11 22:03:00,
2013-06-11 18:08:00,84.1,63.8,29.84,SSW,208,0.0,4.7,50,0.00,,CLR,0.00,VWS V14.01,2013-06-11 22:08:00,
2013-06-11 18:13:00,83.6,63.9,29.84,NW,308,1.2,2.4,52,0.00,,CLR,0.00,VWS V14.01,2013-06-11 22:13:00,
2013-06-11 18:18:00,83.2,64.1,29.84,WSW,254,1.2,7.1,53,0.00,,CLR,0.00,VWS V14.01,2013-06-11 22:18:00,
2013-06-11 18:23:00,82.8,63.7,29.84,WSW,238,0.0,8.3,53,0.00,,CLR,0.00,VWS V14.01,2013-06-11 22:23:00,
2013-06-11 18:28:00,82.4,63.3,29.84,SSW,212,2.4,7.1,53,0.00,,CLR,0.00,VWS V14.01,2013-06-11 22:28:00,
2013-06-11 18:33:00,82.2,63.7,29.84,WSW,250,0.0,2.4,54,0.00,,CLR,0.00,VWS V14.01,2013-06-11 22:33:00,
2013-06-11 18:38:00,81.8,63.3,29.83,WNW,290,3.5,3.5,54,0.00,,CLR,0.00,VWS V14.01,2013-06-11 22:38:00,
2013-06-11 18:43:00,81.6,63.6,29.84,WNW,285,0.0,3.5,55,0.00,,CLR,0.00,VWS V14.01,2013-06-11 22:43:00,
2013-06-11 18:48:00,81.2,63.8,29.84,WNW,290,0.0,1.2,56,0.00,,CLR,0.00,VWS V14.01,2013-06-11 22:48:00,
2013-06-11 18:53:00,81.1,63.7,29.84,SSW,213,3.5,3.5,56,0.00,,CLR,0.00,VWS V14.01,2013-06-11 22:53:00,
2013-06-11 18:58:00,80.7,63.3,29.83,WSW,252,0.0,1.2,56,0.00,,CLR,0.00,VWS V14.01,2013-06-11 22:58:00,
2013-06-11 19:03:00,80.5,63.2,29.82,South,188,5.9,7.1,56,0.00,,CLR,0.00,VWS V14.01,2013-06-11 23:03:00,
2013-06-11 19:08:00,80.5,64.2,29.81,South,188,0.0,0.0,58,0.00,,CLR,0.00,VWS V14.01,2013-06-11 23:08:00,
2013-06-11 19:13:00,80.5,64.7,29.80,South,188,0.0,2.4,59,0.00,,CLR,0.00,VWS V14.01,2013-06-11 23:13:00,
2013-06-11 19:18:00,80.7,64.8,29.81,South,189,0.0,0.0,59,0.00,,CLR,0.00,VWS V14.01,2013-06-11 23:18:00,
2013-06-11 19:23:00,80.7,64.8,29.81,SSW,200,1.2,3.5,59,0.00,,CLR,0.00,VWS V14.01,2013-06-11 23:23:00,
2013-06-11 19:28:00,80.7,64.3,29.81,SSW,201,2.4,4.7,58,0.00,,CLR,0.00,VWS V14.01,2013-06-11 23:28:00,
2013-06-11 19:33:00,80.7,64.3,29.81,WSW,240,0.0,9.4,58,0.00,,CLR,0.00,VWS V14.01,2013-06-11 23:33:00,
2013-06-11 19:38:00,80.9,64.0,29.81,SW,225,1.2,8.3,57,0.00,,CLR,0.00,VWS V14.01,2013-06-11 23:38:00,
2013-06-11 19:43:00,80.7,62.3,29.81,SSW,208,2.4,8.3,54,0.00,,CLR,0.00,VWS V14.01,2013-06-11 23:43:00,
2013-06-11 19:48:00,80.5,62.1,29.81,SW,234,5.9,10.6,54,0.00,,CLR,0.00,VWS V14.01,2013-06-11 23:48:00,
2013-06-11 19:53:00,80.1,61.7,29.82,SW,223,4.7,8.3,54,0.00,,CLR,0.00,VWS V14.01,2013-06-11 23:53:00,
2013-06-11 19:58:00,79.8,62.0,29.82,SW,236,5.9,5.9,55,0.00,,CLR,0.00,VWS V14.01,2013-06-11 23:58:00,
2013-06-11 20:03:00,79.4,62.1,29.83,SW,221,0.0,2.4,56,0.00,,CLR,0.00,VWS V14.01,2013-06-12 00:03:00,
2013-06-11 20:08:00,78.8,62.1,29.84,WNW,301,1.2,9.4,57,0.00,,CLR,0.00,VWS V14.01,2013-06-12 00:08:00,
2013-06-11 20:13:00,78.5,62.3,29.84,WSW,241,1.2,1.2,58,0.00,,CLR,0.00,VWS V14.01,2013-06-12 00:13:00,
2013-06-11 20:18:00,78.1,61.9,29.83,SW,221,0.0,0.0,58,0.00,,CLR,0.00,VWS V14.01,2013-06-12 00:18:00,
2013-06-11 20:23:00,77.7,62.0,29.83,SW,221,0.0,2.4,59,0.00,,CLR,0.00,VWS V14.01,2013-06-12 00:23:00,
2013-06-11 20:28:00,77.4,62.2,29.83,SW,221,0.0,0.0,60,0.00,,CLR,0.00,VWS V14.01,2013-06-12 00:28:00,
2013-06-11 20:33:00,77.2,62.5,29.83,SW,221,0.0,0.0,61,0.00,,CLR,0.00,VWS V14.01,2013-06-12 00:33:00,
2013-06-11 20:38:00,77.0,62.8,29.83,SW,221,0.0,0.0,62,0.00,,CLR,0.00,VWS V14.01,2013-06-12 00:38:00,
2013-06-11 20:43:00,76.8,63.1,29.82,SW,221,0.0,1.2,63,0.00,,CLR,0.00,VWS V14.01,2013-06-12 00:43:00,
2013-06-11 20:48:00,76.5,62.8,29.83,SW,221,0.0,1.2,63,0.00,,CLR,0.00,VWS V14.01,2013-06-12 00:48:00,
2013-06-11 20:53:00,76.3,62.6,29.82,SW,221,1.2,1.2,63,0.00,,CLR,0.00,VWS V14.01,2013-06-12 00:53:00,
2013-06-11 20:58:00,76.0,62.8,29.82,SW,221,0.0,0.0,64,0.00,,CLR,0.00,VWS V14.01,2013-06-12 00:58:00,
2013-06-11 21:03:00,75.6,62.4,29.83,SW,221,0.0,0.0,64,0.00,,CLR,0.00,VWS V14.01,2013-06-12 01:03:00,
2013-06-11 21:08:00,75.3,62.6,29.83,SW,221,0.0,0.0,65,0.00,,CLR,0.00,VWS V14.01,2013-06-12 01:08:00,
2013-06-11 21:13:00,75.1,62.8,29.83,SW,221,0.0,0.0,66,0.00,,CLR,0.00,VWS V14.01,2013-06-12 01:13:00,
2013-06-11 21:18:00,74.7,62.5,29.83,SW,221,0.0,0.0,66,0.00,,CLR,0.00,VWS V14.01,2013-06-12 01:18:00,
2013-06-11 21:23:00,74.2,62.4,29.84,SW,221,0.0,0.0,67,0.00,,CLR,0.00,VWS V14.01,2013-06-12 01:23:00,
2013-06-11 21:28:00,73.9,62.5,29.84,SW,221,0.0,0.0,68,0.00,,CLR,0.00,VWS V14.01,2013-06-12 01:28:00,
2013-06-11 21:33:00,73.5,62.6,29.83,SW,221,0.0,0.0,69,0.00,,CLR,0.00,VWS V14.01,2013-06-12 01:33:00,
2013-06-11 21:38:00,73.2,62.3,29.83,SW,221,0.0,0.0,69,0.00,,CLR,0.00,VWS V14.01,2013-06-12 01:38:00,
2013-06-11 21:43:00,72.8,61.9,29.84,SW,221,0.0,0.0,69,0.00,,CLR,0.00,VWS V14.01,2013-06-12 01:43:00,
2013-06-11 21:48:00,72.5,62.0,29.84,SW,221,0.0,0.0,70,0.00,,CLR,0.00,VWS V14.01,2013-06-12 01:48:00,
2013-06-11 21:53:00,72.1,61.7,29.84,SW,221,0.0,0.0,70,0.00,,CLR,0.00,VWS V14.01,2013-06-12 01:53:00,
2013-06-11 21:58:00,71.8,61.8,29.84,SW,221,0.0,0.0,71,0.00,,CLR,0.00,VWS V14.01,2013-06-12 01:58:00,
2013-06-11 22:03:00,71.5,61.5,29.84,SW,221,0.0,0.0,71,0.00,,CLR,0.00,VWS V14.01,2013-06-12 02:03:00,
2013-06-11 22:08:00,71.1,61.5,29.84,SW,221,0.0,0.0,72,0.00,,CLR,0.00,VWS V14.01,2013-06-12 02:08:00,
2013-06-11 22:13:00,70.8,61.2,29.84,SW,221,0.0,0.0,72,0.00,,CLR,0.00,VWS V14.01,2013-06-12 02:13:00,
2013-06-11 22:18:00,70.6,61.4,29.84,SW,221,0.0,0.0,73,0.00,,CLR,0.00,VWS V14.01,2013-06-12 02:18:00,
2013-06-11 22:23:00,70.3,61.1,29.85,SW,221,0.0,0.0,73,0.00,,CLR,0.00,VWS V14.01,2013-06-12 02:23:00,
2013-06-11 22:28:00,69.9,61.1,29.85,SW,221,0.0,0.0,74,0.00,,CLR,0.00,VWS V14.01,2013-06-12 02:28:00,
2013-06-11 22:33:00,69.8,61.4,29.85,SW,221,0.0,1.2,75,0.00,,CLR,0.00,VWS V14.01,2013-06-12 02:33:00,
2013-06-11 22:38:00,69.8,62.2,29.86,SW,221,0.0,0.0,77,0.00,,CLR,0.00,VWS V14.01,2013-06-12 02:38:00,
2013-06-11 22:43:00,69.6,62.4,29.85,SW,221,0.0,0.0,78,0.00,,CLR,0.00,VWS V14.01,2013-06-12 02:43:00,
2013-06-11 22:48:00,69.4,62.5,29.85,SW,221,0.0,0.0,79,0.00,,CLR,0.00,VWS V14.01,2013-06-12 02:48:00,
2013-06-11 22:53:00,69.3,62.4,29.86,SW,221,0.0,0.0,79,0.00,,CLR,0.00,VWS V14.01,2013-06-12 02:53:00,
2013-06-11 22:58:00,69.1,62.6,29.85,SW,221,0.0,0.0,80,0.00,,CLR,0.00,VWS V14.01,2013-06-12 02:58:00,
2013-06-11 23:03:00,69.1,62.6,29.85,SW,221,0.0,0.0,80,0.00,,CLR,0.00,VWS V14.01,2013-06-12 03:03:00,
2013-06-11 23:08:00,68.9,62.8,29.85,SW,221,0.0,1.2,81,0.00,,CLR,0.00,VWS V14.01,2013-06-12 03:08:00,
2013-06-11 23:13:00,68.9,63.1,29.85,SW,221,0.0,0.0,82,0.00,,CLR,0.00,VWS V14.01,2013-06-12 03:13:00,
2013-06-11 23:18:00,68.8,63.0,29.84,SW,221,0.0,0.0,82,0.00,,CLR,0.00,VWS V14.01,2013-06-12 03:18:00,
2013-06-11 23:23:00,68.8,63.4,29.84,SW,221,0.0,0.0,83,0.00,,CLR,0.00,VWS V14.01,2013-06-12 03:23:00,
2013-06-11 23:28:00,68.6,63.2,29.84,SW,221,0.0,0.0,83,0.00,,CLR,0.00,VWS V14.01,2013-06-12 03:28:00,
2013-06-11 23:33:00,68.4,63.0,29.85,SW,221,0.0,0.0,83,0.00,,CLR,0.00,VWS V14.01,2013-06-12 03:33:00,
2013-06-11 23:38:00,68.4,63.0,29.84,SW,221,0.0,0.0,83,0.00,,CLR,0.00,VWS V14.01,2013-06-12 03:38:00,
2013-06-11 23:43:00,68.6,63.5,29.84,SW,221,0.0,0.0,84,0.00,,CLR,0.00,VWS V14.01,2013-06-12 03:43:00,
2013-06-11 23:48:00,68.6,63.9,29.85,SW,221,0.0,0.0,85,0.00,,CLR,0.00,VWS V14.01,2013-06-12 03:48:00,
2013-06-11 23:53:00,68.6,63.9,29.84,SW,221,0.0,0.0,85,0.00,,FEW055,0.00,VWS V14.01,2013-06-12 03:53:00,
2013-06-11 23:58:00,68.6,63.9,29.85,SW,221,0.0,1.2,85,0.00,,FEW055,0.00,VWS V14.01,2013-06-12 03:58:00,